ARIANE 5 DEB (SYLDA)

基本信息
目录编号:
26613
目录名称:
ARIANE 5 DEB (SYLDA)
国际标识:
2000-072F
轨道中心:
EARTH
物体状态:
在轨
发射日期:
2000-11-16 UTC
轨道信息
数据来源: 国际轨道数据
星历时间: 2026-07-14T11:25:31+0800
半长轴: 26336.075km
偏心率: 0.7328608
轨道倾角: 6.992°
近地点辐角: 175.489°
升交点赤经: 12.213°
平近点角: 289.221°
近地点: 657.261km
远地点: 39258.615km
周期: 708.902分钟
每日圈数: 2.03131
详细信息
发射场:
FRGUI
轨道高度:
LEO
数据来源:
AOE Integration Group
参考系:
TEME
时间系统:
UTC
历元类型:
SGP4
2D轨道图
3D轨道图
轨道高度分析图
轨道倾角分析图
轨道综合分析图
查看轨道综合分析图